QPF
0.00 0.00 0.00 0.01 0.01 0.02 0.03 0.03 0.02 0.01 0.01 0.00 0.00 0.00 0.01 0.01 0.01 0.01 0.02 0.02 0.01 0.01 0.01 0.00 0.01 0.02 0.02 0.01 0.02 0.03 0.02 0.02 0.01 0.02 0.02 0.02 0.03 0.06 0.06 0.05 0.04 0.03 0.03 0.02
0.01 0.00 0.00 0.01 0.01 0.02 0.02 0.02 0.02 0.01 0.01 0.01 0.00 0.00 0.00 0.01 0.01 0.01 0.01 0.01 0.02 0.02 0.01 0.01 0.01 0.01 0.01 0.02 0.02 0.02 0.01 0.01 0.02 0.02 0.02 0.02 0.02 0.03 0.05 0.07 0.06 0.05 0.04 0.04
0.01 0.01 0.01 0.02 0.02 0.02 0.02 0.02 0.02 0.01 0.01 0.01 0.00 0.00 0.00 0.00 0.01 0.01 0.01 0.01 0.01 0.01 0.01 0.01 0.01 0.01 0.01 0.01 0.02 0.02 0.01 0.01 0.03 0.03 0.03 0.02 0.02 0.02 0.02 0.05 0.08 0.07 0.06 0.05
0.02 0.01 0.02 0.03 0.03 0.02 0.02 0.02 0.02 0.02 0.01 0.00 0.01 0.01 0.01 0.01 0.01 0.02 0.02 0.01 0.01 0.01 0.01 0.01 0.01 0.01 0.01 0.01 0.02 0.02 0.03 0.02 0.04 0.04 0.03 0.03 0.02 0.02 0.02 0.02 0.03 0.04 0.06 0.08
0.02 0.02 0.02 0.02 0.03 0.03 0.04 0.03 0.02 0.02 0.02 0.02 0.01 0.01 0.01 0.01 0.01 0.01 0.01 0.01 0.01 0.01 0.01 0.01 0.01 0.01 0.01 0.01 0.01 0.03 0.04 0.03 0.03 0.04 0.03 0.03 0.03 0.02 0.02 0.01 0.01 0.01 0.03 0.05
0.01 0.01 0.02 0.03 0.03 0.03 0.05 0.05 0.03 0.02 0.02 0.02 0.02 0.02 0.01 0.01 0.00 0.00 0.01 0.01 0.01 0.01 0.01 0.02 0.02 0.02 0.01 0.01 0.01 0.02 0.06 0.07 0.05 0.06 0.06 0.05 0.04 0.04 0.03 0.02 0.02 0.02 0.03 0.04
0.02 0.02 0.02 0.02 0.02 0.02 0.04 0.05 0.03 0.02 0.02 0.01 0.01 0.01 0.01 0.01 0.01 0.01 0.01 0.01 0.01 0.01 0.01 0.01 0.02 0.03 0.02 0.01 0.00 0.01 0.02 0.07 0.09 0.07 0.06 0.07 0.06 0.05 0.04 0.04 0.03 0.02 0.02 0.03
0.02 0.02 0.03 0.02 0.02 0.03 0.04 0.03 0.02 0.01 0.01 0.01 0.01 0.00 0.00 0.01 0.02 0.03 0.02 0.01 0.01 0.01 0.01 0.01 0.02 0.02 0.01 0.00 0.00 0.01 0.01 0.01 0.03 0.04 0.04 0.04 0.07 0.08 0.07 0.05 0.04 0.04 0.03 0.03
0.03 0.04 0.04 0.02 0.02 0.02 0.02 0.02 0.01 0.01 0.01 0.01 0.01 0.00 0.00 0.00 0.01 0.01 0.01 0.01 0.01 0.01 0.02 0.02 0.02 0.02 0.01 0.00 0.00 0.01 0.01 0.01 0.01 0.01 0.01 0.02 0.04 0.07 0.10 0.09 0.07 0.06 0.05 0.04
0.02 0.03 0.03 0.02 0.01 0.01 0.01 0.01 0.01 0.01 0.01 0.01 0.01 0.00 0.00 0.00 0.01 0.01 0.00 0.01 0.01 0.01 0.01 0.02 0.03 0.02 0.02 0.01 0.01 0.01 0.01 0.01 0.01 0.01 0.00 0.01 0.01 0.03 0.05 0.07 0.06 0.06 0.06 0.06
0.02 0.02 0.02 0.01 0.01 0.01 0.01 0.01 0.00 0.00 0.01 0.00 0.01 0.00 0.00 0.00 0.01 0.01 0.00 0.00 0.01 0.01 0.01 0.02 0.01 0.02 0.02 0.01 0.01 0.01 0.02 0.01 0.01 0.00 0.00 0.00 0.00 0.01 0.01 0.03 0.05 0.07 0.10 0.11
0.02 0.02 0.02 0.02 0.01 0.01 0.01 0.01 0.01 0.01 0.00 0.00 0.00 0.00 0.00 0.01 0.01 0.01 0.00 0.00 0.01 0.01 0.02 0.01 0.02 0.01 0.01 0.01 0.01 0.01 0.01 0.01 0.00 0.00 0.00 0.01 0.01 0.01 0.01 0.01 0.03 0.04 0.06 0.09
0.02 0.01 0.01 0.01 0.01 0.01 0.01 0.01 0.01 0.01 0.01 0.00 0.00 0.00 0.00 0.00 0.01 0.01 0.01 0.01 0.01 0.01 0.01 0.01 0.01 0.01 0.00 0.01 0.01 0.01 0.01 0.01 0.01 0.01 0.01 0.01 0.01 0.02 0.02 0.02 0.02 0.03 0.03 0.04
0.01 0.01 0.01 0.01 0.01 0.01 0.01 0.01 0.01 0.01 0.00 0.00 0.00 0.00 0.00 0.00 0.00 0.01 0.00 0.00 0.00 0.00 0.00 0.00 0.01 0.01 0.00 0.00 0.00 0.01 0.01 0.01 0.01 0.01 0.01 0.02 0.02 0.02 0.02 0.02 0.02 0.03 0.03 0.04
0.00 0.00 0.01 0.01 0.01 0.02 0.01 0.01 0.01 0.00 0.01 0.00 0.00 0.00 0.01 0.01 0.01 0.01 0.00 0.01 0.01 0.00 0.00 0.00 0.01 0.00 0.00 0.00 0.00 0.01 0.01 0.01 0.00 0.01 0.02 0.02 0.02 0.02 0.02 0.02 0.02 0.02 0.02 0.03
0.00 0.00 0.00 0.01 0.01 0.01 0.01 0.01 0.01 0.00 0.00 0.00 0.00 0.01 0.01 0.01 0.02 0.01 0.01 0.01 0.02 0.01 0.01 0.01 0.01 0.01 0.01 0.01 0.01 0.01 0.01 0.01 0.01 0.01 0.01 0.02 0.02 0.02 0.02 0.02 0.02 0.02 0.02 0.03
0.00 0.00 0.01 0.01 0.02 0.02 0.01 0.01 0.01 0.01 0.00 0.01 0.01 0.01 0.01 0.01 0.02 0.02 0.03 0.03 0.02 0.01 0.01 0.01 0.01 0.01 0.01 0.01 0.02 0.02 0.02 0.02 0.02 0.01 0.01 0.01 0.01 0.01 0.01 0.01 0.02 0.02 0.02 0.03
0.00 0.00 0.00 0.00 0.01 0.01 0.01 0.01 0.01 0.01 0.01 0.01 0.01 0.02 0.02 0.02 0.02 0.02 0.02 0.02 0.02 0.01 0.01 0.01 0.00 0.00 0.01 0.01 0.01 0.02 0.02 0.02 0.01 0.02 0.01 0.01 0.01 0.01 0.01 0.01 0.02 0.02 0.02 0.03
0.00 0.00 0.00 0.00 0.00 0.01 0.01 0.01 0.01 0.01 0.01 0.01 0.01 0.02 0.05 0.04 0.03 0.03 0.02 0.02 0.01 0.01 0.00 0.00 0.00 0.00 0.00 0.01 0.01 0.01 0.01 0.01 0.01 0.01 0.01 0.01 0.01 0.01 0.01 0.01 0.02 0.03 0.03 0.03
0.00 0.00 0.00 0.00 0.01 0.01 0.01 0.01 0.01 0.01 0.02 0.02 0.02 0.03 0.06 0.07 0.04 0.03 0.02 0.01 0.01 0.00 0.00 0.00 0.00 0.00 0.00 0.01 0.01 0.00 0.01 0.01 0.01 0.01 0.01 0.01 0.01 0.01 0.01 0.01 0.02 0.03 0.04 0.05
0.00 0.01 0.01 0.01 0.01 0.01 0.01 0.01 0.01 0.01 0.01 0.01 0.02 0.02 0.03 0.07 0.05 0.03 0.01 0.01 0.01 0.00 0.00 0.00 0.00 0.01 0.01 0.01 0.01 0.01 0.01 0.01 0.01 0.01 0.01 0.01 0.01 0.01 0.01 0.01 0.02 0.03 0.04 0.05
0.00 0.00 0.01 0.01 0.01 0.01 0.01 0.01 0.01 0.01 0.01 0.01 0.02 0.02 0.02 0.04 0.06 0.04 0.02 0.01 0.00 0.00 0.00 0.00 0.00 0.01 0.01 0.01 0.01 0.01 0.01 0.01 0.01 0.01 0.01 0.01 0.01 0.01 0.01 0.01 0.02 0.03 0.04 0.05
0.01 0.00 0.00 0.01 0.01 0.00 0.01 0.01 0.01 0.01 0.01 0.02 0.02 0.03 0.03 0.03 0.05 0.05 0.04 0.02 0.01 0.01 0.01 0.00 0.01 0.01 0.01 0.01 0.01 0.01 0.01 0.01 0.01 0.01 0.01 0.02 0.02 0.02 0.02 0.02 0.02 0.03 0.04 0.04
0.00 0.00 0.00 0.01 0.00 0.00 0.01 0.01 0.01 0.01 0.02 0.02 0.02 0.02 0.03 0.03 0.03 0.04 0.04 0.03 0.03 0.02 0.02 0.01 0.01 0.01 0.01 0.01 0.01 0.01 0.01 0.01 0.01 0.01 0.01 0.01 0.02 0.02 0.01 0.01 0.02 0.02 0.02 0.04
0.00 0.00 0.00 0.01 0.01 0.01 0.01 0.02 0.02 0.01 0.02 0.02 0.01 0.01 0.02 0.02 0.03 0.03 0.02 0.02 0.02 0.03 0.03 0.03 0.02 0.01 0.01 0.01 0.01 0.01 0.01 0.01 0.01 0.01 0.01 0.01 0.01 0.01 0.01 0.01 0.01 0.01 0.01 0.02
0.01 0.01 0.01 0.01 0.01 0.01 0.01 0.01 0.02 0.02 0.01 0.01 0.01 0.01 0.01 0.01 0.02 0.02 0.01 0.02 0.02 0.02 0.02 0.03 0.02 0.02 0.01 0.01 0.01 0.01 0.01 0.01 0.01 0.01 0.01 0.01 0.01 0.01 0.01 0.01 0.01 0.01 0.01 0.01
0.01 0.01 0.01 0.01 0.01 0.01 0.01 0.01 0.01 0.01 0.01 0.01 0.00 0.01 0.01 0.01 0.01 0.02 0.02 0.02 0.02 0.02 0.03 0.02 0.02 0.02 0.02 0.02 0.02 0.03 0.03 0.02 0.02 0.02 0.03 0.03 0.02 0.02 0.01 0.01 0.01 0.01 0.01 0.01
MSLP
1007.14 1007.45 1007.77 1008.06 1008.31 1008.47 1008.51 1008.43 1008.20 1007.85 1007.43 1006.97 1006.54 1006.22 1006.04 1006.04 1006.21 1006.55 1007.02 1007.58 1008.18 1008.77 1009.33 1009.85 1010.32 1010.75 1011.14 1011.50 1011.84 1012.16 1012.44 1012.68 1012.86 1013.00 1013.08 1013.13 1013.15 1013.15 1013.15 1013.15 1013.15 1013.13 1013.09 1013.01
1006.54 1006.75 1006.91 1007.01 1007.06 1007.03 1006.93 1006.77 1006.54 1006.27 1005.98 1005.71 1005.49 1005.36 1005.35 1005.44 1005.66 1005.99 1006.41 1006.89 1007.41 1007.95 1008.49 1009.04 1009.57 1010.09 1010.60 1011.08 1011.54 1011.96 1012.32 1012.62 1012.85 1013.03 1013.14 1013.21 1013.26 1013.29 1013.30 1013.31 1013.29 1013.25 1013.17 1013.04
1005.96 1006.04 1006.06 1006.00 1005.87 1005.69 1005.47 1005.23 1005.00 1004.78 1004.60 1004.47 1004.42 1004.43 1004.53 1004.70 1004.94 1005.25 1005.62 1006.04 1006.50 1007.00 1007.54 1008.11 1008.71 1009.33 1009.95 1010.56 1011.13 1011.65 1012.10 1012.47 1012.76 1012.98 1013.13 1013.24 1013.31 1013.37 1013.40 1013.41 1013.40 1013.34 1013.23 1013.07
1005.41 1005.38 1005.27 1005.06 1004.79 1004.48 1004.16 1003.86 1003.60 1003.41 1003.29 1003.25 1003.29 1003.40 1003.57 1003.78 1004.04 1004.33 1004.66 1005.04 1005.48 1005.97 1006.53 1007.15 1007.83 1008.55 1009.29 1010.01 1010.69 1011.30 1011.83 1012.27 1012.61 1012.87 1013.06 1013.20 1013.30 1013.38 1013.43 1013.45 1013.44 1013.38 1013.26 1013.08
1004.94 1004.80 1004.57 1004.24 1003.86 1003.44 1003.03 1002.66 1002.37 1002.17 1002.07 1002.06 1002.14 1002.29 1002.49 1002.72 1002.99 1003.28 1003.61 1003.99 1004.44 1004.96 1005.57 1006.26 1007.03 1007.84 1008.68 1009.50 1010.27 1010.96 1011.55 1012.04 1012.42 1012.71 1012.93 1013.09 1013.21 1013.31 1013.38 1013.41 1013.41 1013.36 1013.24 1013.06
1004.60 1004.35 1004.00 1003.58 1003.09 1002.59 1002.10 1001.66 1001.32 1001.07 1000.95 1000.93 1001.01 1001.16 1001.37 1001.62 1001.90 1002.21 1002.56 1002.98 1003.47 1004.06 1004.74 1005.51 1006.36 1007.27 1008.18 1009.07 1009.90 1010.64 1011.27 1011.78 1012.18 1012.49 1012.72 1012.90 1013.03 1013.14 1013.22 1013.27 1013.28 1013.24 1013.13 1012.96
1004.39 1004.04 1003.60 1003.09 1002.53 1001.94 1001.38 1000.88 1000.47 1000.16 999.98 999.92 999.96 1000.10 1000.30 1000.56 1000.86 1001.21 1001.62 1002.10 1002.67 1003.34 1004.10 1004.95 1005.88 1006.84 1007.81 1008.74 1009.59 1010.35 1010.98 1011.49 1011.90 1012.20 1012.43 1012.61 1012.75 1012.86 1012.95 1013.01 1013.03 1013.00 1012.91 1012.75
1004.32 1003.88 1003.37 1002.79 1002.17 1001.52 1000.90 1000.33 999.84 999.47 999.22 999.09 999.09 999.19 999.38 999.64 999.98 1000.38 1000.86 1001.42 1002.07 1002.82 1003.66 1004.58 1005.55 1006.55 1007.53 1008.46 1009.30 1010.04 1010.65 1011.15 1011.53 1011.82 1012.04 1012.21 1012.35 1012.47 1012.56 1012.63 1012.66 1012.64 1012.56 1012.41
1004.34 1003.83 1003.27 1002.66 1001.99 1001.31 1000.63 1000.00 999.45 999.00 998.68 998.48 998.42 998.48 998.66 998.93 999.30 999.76 1000.30 1000.94 1001.66 1002.48 1003.37 1004.32 1005.31 1006.31 1007.27 1008.17 1008.97 1009.67 1010.24 1010.70 1011.06 1011.33 1011.54 1011.70 1011.84 1011.96 1012.06 1012.13 1012.17 1012.17 1012.10 1011.97
1004.36 1003.83 1003.25 1002.61 1001.94 1001.23 1000.53 999.85 999.24 998.73 998.34 998.08 997.96 997.98 998.14 998.42 998.82 999.32 999.92 1000.62 1001.40 1002.25 1003.16 1004.12 1005.08 1006.04 1006.95 1007.79 1008.53 1009.17 1009.70 1010.13 1010.46 1010.72 1010.93 1011.09 1011.24 1011.36 1011.47 1011.56 1011.61 1011.62 1011.57 1011.45
1004.27 1003.75 1003.18 1002.57 1001.90 1001.20 1000.49 999.79 999.14 998.58 998.13 997.81 997.65 997.64 997.78 998.07 998.48 999.01 999.65 1000.38 1001.18 1002.04 1002.94 1003.86 1004.77 1005.66 1006.50 1007.27 1007.95 1008.53 1009.03 1009.43 1009.75 1010.02 1010.23 1010.42 1010.58 1010.73 1010.86 1010.96 1011.03 1011.05 1011.01 1010.90
1003.96 1003.48 1002.96 1002.40 1001.77 1001.10 1000.40 999.70 999.03 998.44 997.95 997.60 997.40 997.36 997.49 997.78 998.20 998.75 999.41 1000.14 1000.94 1001.78 1002.63 1003.49 1004.34 1005.14 1005.90 1006.59 1007.21 1007.76 1008.23 1008.62 1008.96 1009.25 1009.50 1009.72 1009.92 1010.10 1010.26 1010.39 1010.48 1010.52 1010.50 1010.40
1003.35 1002.94 1002.50 1002.00 1001.44 1000.81 1000.15 999.46 998.80 998.20 997.69 997.32 997.10 997.06 997.19 997.48 997.91 998.47 999.12 999.85 1000.63 1001.42 1002.23 1003.02 1003.78 1004.51 1005.19 1005.81 1006.39 1006.91 1007.37 1007.78 1008.15 1008.48 1008.79 1009.06 1009.31 1009.54 1009.73 1009.89 1010.01 1010.07 1010.07 1009.98
1002.40 1002.08 1001.72 1001.31 1000.82 1000.26 999.65 999.00 998.36 997.77 997.28 996.91 996.70 996.67 996.81 997.11 997.56 998.13 998.79 999.51 1000.26 1001.01 1001.76 1002.48 1003.17 1003.82 1004.44 1005.02 1005.56 1006.06 1006.54 1006.98 1007.40 1007.78 1008.14 1008.48 1008.78 1009.05 1009.29 1009.49 1009.64 1009.72 1009.73 1009.66
1001.16 1000.92 1000.65 1000.33 999.92 999.43 998.88 998.28 997.69 997.14 996.68 996.35 996.17 996.17 996.35 996.69 997.17 997.77 998.44 999.16 999.89 1000.61 1001.31 1001.98 1002.61 1003.20 1003.77 1004.31 1004.83 1005.33 1005.82 1006.30 1006.76 1007.19 1007.61 1008.00 1008.35 1008.67 1008.95 1009.18 1009.35 1009.46 1009.50 1009.44
999.70 999.53 999.34 999.09 998.77 998.35 997.87 997.34 996.81 996.33 995.93 995.66 995.55 995.62 995.86 996.26 996.80 997.44 998.14 998.88 999.61 1000.32 1000.99 1001.61 1002.20 1002.75 1003.27 1003.78 1004.28 1004.78 1005.28 1005.78 1006.27 1006.75 1007.20 1007.63 1008.02 1008.37 1008.68 1008.94 1009.13 1009.27 1009.33 1009.30
998.12 998.01 997.88 997.70 997.44 997.10 996.69 996.24 995.80 995.40 995.09 994.92 994.91 995.07 995.41 995.90 996.51 997.22 997.97 998.74 999.49 1000.20 1000.86 1001.46 1002.01 1002.52 1003.01 1003.49 1003.97 1004.46 1004.95 1005.45 1005.96 1006.45 1006.92 1007.37 1007.78 1008.15 1008.47 1008.74 1008.96 1009.11 1009.20 1009.20
996.51 996.43 996.34 996.20 996.01 995.74 995.42 995.07 994.73 994.44 994.25 994.20 994.32 994.61 995.06 995.66 996.37 997.16 997.98 998.80 999.57 1000.30 1000.95 1001.53 1002.06 1002.54 1003.00 1003.44 1003.89 1004.34 1004.81 1005.30 1005.78 1006.27 1006.74 1007.18 1007.59 1007.97 1008.30 1008.58 1008.81 1008.98 1009.08 1009.12
994.91 994.84 994.77 994.69 994.55 994.36 994.14 993.90 993.68 993.54 993.50 993.59 993.86 994.28 994.87 995.59 996.41 997.29 998.18 999.04 999.85 1000.59 1001.24 1001.81 1002.31 1002.76 1003.18 1003.57 1003.98 1004.39 1004.82 1005.27 1005.72 1006.18 1006.63 1007.05 1007.46 1007.82 1008.16 1008.44 1008.68 1008.87 1009.00 1009.07
993.32 993.25 993.21 993.17 993.10 993.00 992.89 992.79 992.72 992.73 992.86 993.12 993.55 994.13 994.86 995.70 996.62 997.57 998.53 999.44 1000.27 1001.01 1001.66 1002.21 1002.68 1003.09 1003.46 1003.81 1004.16 1004.52 1004.91 1005.31 1005.72 1006.15 1006.57 1006.98 1007.37 1007.74 1008.07 1008.36 1008.62 1008.83 1008.98 1009.08
991.71 991.65 991.64 991.66 991.68 991.69 991.72 991.77 991.87 992.06 992.37 992.81 993.40 994.14 994.99 995.94 996.95 997.97 998.96 999.89 1000.73 1001.47 1002.10 1002.62 1003.06 1003.43 1003.76 1004.06 1004.37 1004.69 1005.03 1005.40 1005.78 1006.18 1006.58 1006.98 1007.37 1007.74 1008.08 1008.39 1008.67 1008.90 1009.08 1009.20
990.06 990.03 990.08 990.17 990.30 990.45 990.64 990.86 991.16 991.54 992.04 992.66 993.41 994.28 995.25 996.29 997.36 998.42 999.43 1000.36 1001.19 1001.90 1002.50 1002.99 1003.40 1003.73 1004.03 1004.30 1004.58 1004.87 1005.19 1005.53 1005.90 1006.29 1006.69 1007.09 1007.49 1007.88 1008.24 1008.58 1008.88 1009.14 1009.34 1009.49
988.41 988.43 988.56 988.77 989.03 989.34 989.70 990.12 990.61 991.20 991.88 992.67 993.57 994.56 995.62 996.72 997.82 998.89 999.90 1000.81 1001.60 1002.28 1002.85 1003.31 1003.69 1004.00 1004.28 1004.54 1004.81 1005.09 1005.41 1005.75 1006.13 1006.53 1006.94 1007.37 1007.79 1008.20 1008.59 1008.96 1009.29 1009.57 1009.80 1009.97
986.86 986.97 987.21 987.55 987.96 988.45 988.99 989.61 990.30 991.07 991.93 992.87 993.90 994.98 996.11 997.24 998.35 999.40 1000.38 1001.25 1002.01 1002.65 1003.18 1003.62 1003.98 1004.29 1004.57 1004.84 1005.12 1005.43 1005.76 1006.13 1006.53 1006.96 1007.40 1007.85 1008.30 1008.74 1009.16 1009.55 1009.90 1010.20 1010.45 1010.62
985.61 985.83 986.19 986.67 987.24 987.89 988.62 989.42 990.28 991.22 992.23 993.30 994.42 995.58 996.74 997.88 998.97 1000.00 1000.93 1001.76 1002.47 1003.07 1003.58 1004.00 1004.36 1004.68 1004.98 1005.29 1005.60 1005.95 1006.32 1006.73 1007.16 1007.62 1008.08 1008.56 1009.03 1009.48 1009.92 1010.32 1010.68 1010.99 1011.23 1011.41
984.87 985.20 985.69 986.30 987.01 987.81 988.69 989.64 990.65 991.72 992.84 994.01 995.19 996.38 997.55 998.68 999.74 1000.72 1001.61 1002.39 1003.06 1003.63 1004.13 1004.55 1004.93 1005.28 1005.62 1005.96 1006.33 1006.72 1007.14 1007.58 1008.04 1008.52 1009.00 1009.48 1009.95 1010.40 1010.82 1011.21 1011.55 1011.84 1012.08 1012.24
984.85 985.28 985.86 986.57 987.39 988.30 989.28 990.33 991.44 992.59 993.78 994.99 996.20 997.40 998.56 999.66 1000.68 1001.62 1002.46 1003.19 1003.84 1004.40 1004.89 1005.33 1005.73 1006.12 1006.51 1006.91 1007.32 1007.76 1008.21 1008.68 1009.16 1009.63 1010.10 1010.56 1010.99 1011.40 1011.78 1012.13 1012.43 1012.68 1012.88 1013.02
Thickness
5646 5652 5654 5653 5654 5656 5650 5646 5638 5643 5643 5649 5653 5653 5652 5650 5648 5646 5643 5642 5641 5639 5638 5637 5636 5636 5637 5636 5636 5636 5634 5632 5630 5628 5627 5625 5622 5620 5618 5616 5614 5611 5609 5607
5640 5649 5650 5646 5649 5650 5649 5647 5642 5642 5642 5651 5651 5648 5645 5642 5642 5639 5637 5636 5635 5633 5632 5630 5628 5628 5628 5628 5627 5627 5625 5624 5623 5620 5618 5616 5614 5612 5610 5608 5605 5603 5601 5598
5624 5637 5640 5631 5639 5641 5641 5643 5642 5635 5640 5644 5640 5640 5639 5637 5636 5633 5631 5630 5628 5626 5624 5623 5622 5622 5621 5620 5619 5618 5617 5616 5615 5613 5610 5608 5606 5603 5601 5599 5597 5594 5592 5591
5615 5623 5615 5629 5644 5644 5640 5640 5640 5639 5638 5638 5637 5636 5635 5633 5630 5627 5625 5623 5621 5620 5618 5617 5615 5614 5613 5612 5610 5609 5607 5606 5606 5605 5602 5600 5597 5594 5592 5590 5588 5586 5585 5583
5604 5606 5611 5627 5637 5637 5633 5628 5634 5632 5631 5630 5629 5626 5623 5626 5625 5622 5620 5618 5616 5614 5612 5610 5608 5606 5604 5602 5600 5599 5598 5597 5596 5595 5593 5591 5588 5586 5584 5582 5580 5579 5577 5576
5598 5598 5599 5617 5633 5637 5631 5617 5627 5626 5623 5621 5619 5608 5611 5619 5618 5615 5613 5611 5608 5606 5604 5602 5600 5598 5595 5592 5590 5589 5589 5588 5587 5586 5584 5582 5580 5578 5576 5574 5572 5571 5570 5568
5592 5592 5600 5617 5626 5628 5609 5610 5622 5621 5618 5615 5611 5610 5612 5612 5610 5609 5606 5603 5601 5598 5595 5593 5591 5589 5586 5583 5581 5581 5580 5578 5577 5576 5574 5573 5571 5569 5567 5565 5563 5561 5560 5559
5585 5583 5593 5615 5616 5609 5608 5615 5616 5614 5613 5610 5607 5607 5606 5605 5603 5601 5598 5595 5592 5588 5585 5584 5582 5580 5576 5574 5573 5572 5570 5568 5566 5565 5565 5564 5561 5559 5557 5555 5553 5552 5550 5549
5589 5592 5602 5609 5610 5611 5610 5608 5608 5607 5607 5605 5601 5598 5597 5595 5593 5592 5589 5586 5583 5579 5576 5573 5572 5570 5567 5565 5564 5562 5559 5557 5555 5554 5553 5552 5550 5548 5546 5545 5543 5542 5541 5540
5584 5590 5595 5599 5601 5602 5603 5602 5603 5602 5600 5597 5593 5590 5587 5585 5583 5582 5580 5577 5574 5570 5567 5564 5562 5560 5558 5556 5554 5552 5549 5546 5544 5542 5542 5540 5539 5538 5536 5535 5533 5532 5531 5530
5575 5582 5586 5589 5591 5593 5594 5594 5595 5593 5592 5590 5586 5582 5579 5577 5574 5572 5570 5568 5565 5562 5559 5556 5553 5550 5549 5547 5544 5541 5538 5536 5534 5532 5530 5529 5528 5527 5526 5525 5524 5523 5522 5521
5571 5577 5575 5578 5584 5586 5585 5585 5585 5584 5582 5581 5579 5575 5572 5568 5566 5563 5561 5558 5556 5553 5550 5547 5544 5541 5540 5538 5535 5532 5528 5526 5524 5522 5520 5518 5517 5516 5516 5516 5516 5515 5514 5513
5574 5576 5574 5576 5577 5578 5577 5577 5577 5576 5575 5572 5570 5567 5564 5560 5557 5554 5552 5549 5547 5544 5541 5538 5536 5533 5531 5529 5526 5523 5519 5516 5514 5512 5510 5508 5507 5505 5505 5505 5505 5504 5504 5503
5568 5567 5565 5567 5567 5569 5569 5568 5568 5566 5565 5563 5561 5558 5555 5551 5547 5545 5542 5540 5538 5535 5532 5529 5527 5525 5523 5520 5517 5514 5510 5508 5505 5502 5500 5498 5496 5495 5494 5493 5493 5492 5492 5492
5560 5561 5559 5560 5560 5560 5559 5558 5556 5554 5553 5552 5550 5547 5544 5541 5537 5535 5533 5531 5528 5525 5522 5520 5518 5515 5513 5511 5508 5505 5501 5498 5496 5493 5491 5489 5487 5485 5484 5483 5482 5481 5480 5480
5551 5551 5551 5550 5550 5550 5548 5547 5545 5543 5542 5541 5539 5536 5534 5531 5528 5526 5524 5521 5518 5514 5512 5509 5507 5505 5504 5501 5498 5495 5492 5491 5488 5485 5482 5479 5478 5476 5474 5473 5472 5470 5469 5469
5540 5538 5539 5538 5539 5539 5539 5538 5537 5535 5533 5531 5530 5527 5524 5521 5518 5515 5513 5510 5508 5505 5502 5500 5497 5496 5494 5492 5489 5486 5483 5481 5480 5476 5473 5471 5469 5467 5466 5464 5462 5461 5460 5460
5535 5534 5533 5531 5530 5529 5528 5528 5527 5525 5523 5522 5520 5517 5513 5511 5508 5505 5502 5499 5496 5494 5492 5490 5488 5486 5484 5482 5480 5478 5475 5472 5469 5467 5464 5462 5461 5458 5456 5455 5454 5453 5452 5451
5527 5526 5525 5524 5522 5520 5519 5517 5517 5515 5514 5512 5510 5506 5504 5501 5498 5495 5492 5489 5486 5484 5482 5481 5480 5477 5475 5473 5472 5469 5466 5463 5461 5458 5456 5454 5451 5449 5447 5446 5445 5444 5443 5443
5516 5516 5516 5515 5514 5512 5510 5509 5507 5505 5503 5502 5499 5496 5493 5490 5488 5485 5482 5479 5477 5475 5473 5472 5470 5468 5466 5465 5463 5460 5457 5455 5452 5449 5446 5444 5442 5440 5439 5438 5437 5436 5435 5435
5506 5506 5506 5504 5503 5502 5501 5500 5498 5496 5493 5492 5490 5487 5484 5481 5478 5475 5472 5468 5466 5465 5464 5463 5461 5459 5458 5456 5454 5451 5448 5446 5443 5440 5438 5435 5433 5432 5430 5429 5429 5428 5427 5427
5496 5495 5495 5494 5493 5491 5491 5490 5488 5486 5484 5482 5480 5477 5474 5470 5467 5464 5462 5459 5457 5457 5455 5453 5451 5451 5450 5448 5445 5442 5439 5437 5435 5432 5429 5427 5426 5424 5423 5422 5421 5420 5419 5418
5486 5486 5485 5485 5483 5481 5480 5479 5478 5477 5475 5472 5470 5467 5464 5461 5458 5454 5451 5450 5449 5448 5446 5444 5444 5444 5442 5438 5435 5433 5431 5428 5426 5424 5422 5421 5419 5418 5416 5415 5414 5413 5412 5412
5477 5477 5476 5475 5473 5472 5470 5469 5467 5466 5464 5461 5459 5456 5454 5450 5447 5445 5443 5442 5441 5439 5436 5436 5436 5435 5432 5428 5426 5424 5422 5420 5419 5417 5415 5414 5413 5412 5410 5409 5408 5407 5406 5406
5469 5468 5468 5466 5464 5463 5461 5459 5456 5454 5452 5449 5447 5445 5443 5441 5439 5437 5435 5433 5432 5430 5427 5427 5427 5425 5422 5420 5418 5416 5414 5413 5412 5410 5409 5407 5406 5405 5404 5403 5402 5402 5401 5400
5460 5460 5459 5458 5456 5454 5452 5449 5446 5444 5441 5439 5437 5435 5433 5432 5430 5428 5427 5425 5423 5422 5419 5418 5416 5415 5413 5411 5409 5408 5406 5405 5404 5403 5402 5401 5400 5399 5399 5398 5397 5397 5396 5396
5452 5450 5449 5447 5446 5444 5442 5440 5438 5435 5433 5431 5428 5426 5424 5423 5421 5420 5418 5416 5414 5413 5411 5410 5408 5406 5405 5403 5401 5400 5399 5398 5397 5396 5395 5395 5394 5393 5393 5393 5392 5392 5391 5391